RH
62 64 65 69 69 73 62 51 50 46 43 42 44 42 39 37 38 40 47 54 56 65
62 62 65 66 74 74 61 52 43 43 42 46 46 43 42 43 43 46 48 46 43 50
63 65 67 71 72 66 60 44 42 46 48 49 47 49 45 42 42 41 39 40 45 52
66 69 69 69 72 69 52 44 48 51 52 52 50 47 45 42 38 35 38 42 46 50
68 75 69 73 72 59 49 51 53 54 53 52 54 48 39 36 37 33 37 45 46 50
71 76 66 77 63 53 56 59 58 55 54 61 54 46 41 38 42 44 46 46 46 46
71 78 68 68 61 61 60 61 59 59 60 56 50 44 44 50 47 47 45 38 40 40
75 70 76 67 59 63 67 62 62 62 63 57 49 49 47 48 45 43 39 34 41 43
77 78 71 61 69 74 68 64 67 64 61 52 50 45 45 47 48 45 39 38 43 43
83 69 66 75 76 70 69 66 63 57 56 49 49 46 46 49 51 48 41 44 47 46
83 75 77 76 74 71 71 66 59 60 56 55 53 48 50 54 55 53 45 49 49 48
80 82 82 71 68 70 65 66 63 55 54 52 52 49 53 58 61 53 47 49 49 51
85 75 70 74 67 65 64 62 59 55 51 49 44 48 56 65 58 49 50 51 51 48
82 80 72 70 69 62 58 57 56 50 43 45 45 50 58 66 57 51 51 53 50 51